Location: Unspecified
(0.0000°N, 0.0000°E)
Time: 10:41:57
(UTC+00:00)

Vanguard 3 - Pass Details

Date: 27 September 2023
Orbit: 507 x 3241 km, 33.3° (Epoch: 06 December)

Event Time Altitude Azimuth Distance (km) Brightness Sun altitude
Rises 03:13:00 0° 304° (NW) 2,682 - -39.5°
Reaches altitude 10° 03:14:54 10° 304° (NW) 1,896 - -39.1°
Maximum altitude 03:19:04 86° 217° (SW) 741 - -38.0°
Exits shadow 03:22:00 30° 128° (SE) 1,525 8.8 -37.3°
Drops below altitude 10° 03:25:41 10° 126° (SE) 2,953 10.6 -36.4°
Sets 03:29:18 0° 126° (SE) 4,349 11.6 -35.5°
